Regional Weather Roundup
Issued by NWS Sterling, VA

Home | Current Version | Previous Version | Graphics & Text | Print | Product List | Glossary On
Versions: 1 2 3 4 5 6 7 8 9 10 11 12 13 14 15 16 17 18 19 20 21 22 23 24 25 26 27 28 29 30 31 32 33 34 35 36 37 38 39 40 41 42 43 44 45 46 47 48 49 50
000
ASUS41 KLWX 211310
RWRLWX

REGIONAL WEATHER ROUNDUP
NATIONAL WEATHER SERVICE BALTIMORE MD/WASHINGTON DC
900 AM EDT THU AUG 21 2014

Note: "FAIR" indicates few or no clouds below 12,000 feet
with no significant weather and/or obstructions to visibility.
 TC=TEMPERATURE CELSIUS

 * =Non NWS site. Station does not report precipitation (e.g. rain,
    snow, etc.), thunder, or fog.

DCZ001-MDZ009-015-VAZ040>042-051-053>054-211400-
WASHINGTON METRO
  /KDAA//-FT BELVOIR

CITY           SKY/WX    TMP DP  RH WIND       PRES   REMARKS
WASHINGTON NAT MOSUNNY   76  68  76 S3        30.06R
DULLES         CLOUDY    66  66 100 CALM      30.06R FOG
ANDREWS AFB    MOSUNNY   75  71  87 SW5       30.06S
QUANTICO       MOSUNNY   71  67  87 CALM      30.06S
COLLEGE PARK*  PTSUNNY   72  72 100 CALM      30.05S
LEESBURG*      CLOUDY    68  68 100 CALM      30.07S
GAITHERSBURG*  MOSUNNY   68  66  94 CALM      30.10S

$$

MDZ006>007-011-014-211400-
BALTIMORE METRO

CITY           SKY/WX    TMP DP  RH WIND       PRES   REMARKS
BWI AIRPORT    LGT RAIN  71  69  93 CALM      30.05S
MD SCIENCE CTR   N/A     75  70  84 MISG      30.05S
MARTIN STATE   CLOUDY    75  72  88 CALM      30.07R
ANNAPOLIS      PTSUNNY   76  71  85 SW3       30.05R
FORT MEADE*    CLOUDY    70  68  94 CALM      30.08R

$$

MDZ012-015-019>023-211400-
MARYLAND EASTERN SHORE

CITY           SKY/WX    TMP DP  RH WIND       PRES   REMARKS
OCEAN CITY     CLOUDY    76  71  85 CALM      30.05S
SALISBURY      CLOUDY    76  70  82 CALM      30.05S
BAY BRIDGE AP*   N/A     73  70  88 S5        30.05S
CAMBRIDGE*     MOSUNNY   77  70  78 SE3       30.04F
EASTON*        MOSUNNY   75  75 100 CALM      30.08S

$$

MDZ017>025-211400-
SOUTHERN MARYLAND

CITY           SKY/WX    TMP DP  RH WIND       PRES   REMARKS
PATUXENT RIVER MOSUNNY   77  72  84 W7        30.04S
ST INIGOES     SUNNY     78  70  76 W3        30.04R
LEONARDTOWN*   SUNNY     77  70  78 SW5       30.07R

$$

MDZ003>005-211400-
NORTH CENTRAL MARYLAND

CITY           SKY/WX    TMP DP  RH WIND       PRES   REMARKS
FREDERICK*     MOSUNNY   72  72 100 CALM      30.09R
HAGERSTOWN APT FOG       69  67  93 CALM      30.06F VSB 1
WESTMINSTER*   MOSUNNY   70  70 100 SW6       30.08R

$$

MDZ501>502-211400-
WESTERN MARYLAND

CITY           SKY/WX    TMP DP  RH WIND       PRES   REMARKS
OAKLAND*       CLOUDY    64 N/A N/A SW5       30.16S HAZE
CUMBERLAND*    CLOUDY    72  70  94 CALM      30.11S

$$

VAZ025>031-211400-
SHENANDOAH VALLEY

CITY           SKY/WX    TMP DP  RH WIND       PRES   REMARKS
WINCHESTER*    MOSUNNY   70  70 100 CALM      30.07S
STAUNTON*      PTSUNNY   68  67  96 CALM      30.12S FOG

$$

WVZ021-048>050-054>055-211400-
EASTERN WEST VIRGINIA PANHANDLE

CITY           SKY/WX    TMP DP  RH WIND       PRES   REMARKS
MARTINSBURG    CLOUDY    69  66  90 VRB3      30.07S FOG
PETERSBURG*    NOT AVBL

$$

VAZ036>039-050-211400-
CENTRAL FOOTHILLS

CITY           SKY/WX    TMP DP  RH WIND       PRES   REMARKS
CHARLOTTESVILL FOG       68  67  96 CALM      30.08R VSB 1/2
ORANGE*        CLOUDY    70  68  94 CALM      30.09R

$$

VAZ055>057-211400-
NORTH AND CENTRAL PIEDMONT

CITY           SKY/WX    TMP DP  RH WIND       PRES   REMARKS
FREDERICKSBRG* MOSUNNY   71  71 100 CALM      30.05F
STAFFORD*      CLOUDY    68  68 100 CALM      30.10S

$$

NCZ024-NYZ072-PAZ021-071-VAZ022-071-211400-
OTHER REGIONAL OBSERVATIONS

CITY           SKY/WX    TMP DP  RH WIND       PRES   REMARKS
NEW YORK CITY  MOSUNNY   72  64  76 CALM      30.09S
PHILADELPHIA   CLOUDY    74  66  76 CALM      30.06S
PITTSBURGH     PTSUNNY   70  67  90 SW6       30.06R
ROANOKE        PTSUNNY   75  65  70 CALM      30.14R
RICHMOND       MOSUNNY   78  71  79 CALM      30.06R
RALEIGH        MOSUNNY   78  71  79 VRB6      30.08R

$$

ANZ530>537-211400-
MARINE OBSERVATIONS

STATION/POSITION TIME  TEMP    WIND        PRES
                       AIR SEA DIR/SP/G
                 (UTC) (F)     (DEG/KT/KT) (MB)
THOMAS PT LIGHT  1300   74 78  220/  4/  4 1018.2R
BALT KEY BRIDGE  1300   73     260/  3/  3 1017.5S
COVE POINT       1300   78     260/  4/  5 1017.1S
LEWISETTA        1300   76 79  270/  6/  7 1016.9F
SOLOMONS ISLAND  1300      80                N/A
PINEY POINT      1300          290/  6/  6   N/A

$$



USA.gov is the U.S. government's official web portal to all federal, state and local government web resources and services.